User: anonymous   Login
Location: Unspecified
(0.0000°N, 0.0000°E)
Time: 08:53:54
(UTC+00:00)
Language:

NOAA 15 - Orbit

View from above orbital plane
View from above orbital plane
View from above satellite
View from above satellite

Ground track
Ground track

The orbit data is extracted from the following two-line orbital elements,

1 25338U 98030A   19292.91479946 +.00000012 +00000-0 +23871-4 0  9991
2 25338 098.7404 313.9219 0009494 242.1282 117.8937 14.25935358114557
Epoch (UTC): 19 October 2019 21:57:18
Eccentricity: 0.0009494
inclination: 98.7404°
perigee height: 798 km
apogee height: 812 km
right ascension of ascending node: 313.9219°
argument of perigee: 242.1282°
revolutions per day: 14.25935358
mean anomaly at epoch: 117.8937°
orbit number at epoch: 11455

The dashed part of the orbit path shows where the satellite is in the earth's shadow,  

DLR